N1952 KBGR-KBOS

Flight info

Callsign N1952
Flight time N/A
Altitude 25000
Route AJJAY OOSHN5
Aircraft C750/M-SBDE3FGHRWXY/S

Departure

Time 2026-04-18 13:32
Airport Bangor International Airport (KBGR)

Arrival

Time N/A
Airport Boston Logan International Airport (KBOS)
Time Latitude Longitude Altitude Speed Heading
2026-04-18 13:17 44.80888 -68.82057 174 ft 0 kts 205°
2026-04-18 13:25 44.80879 -68.82062 174 ft 3 kts 205°
2026-04-18 13:25 44.80871 -68.82083 174 ft 2 kts 276°
2026-04-18 13:25 44.80878 -68.82104 174 ft 3 kts 292°
2026-04-18 13:26 44.80879 -68.82132 174 ft 3 kts 250°
2026-04-18 13:26 44.80866 -68.82161 174 ft 4 kts 238°
2026-04-18 13:26 44.80853 -68.82205 174 ft 7 kts 258°
2026-04-18 13:26 44.80841 -68.82308 175 ft 14 kts 265°
2026-04-18 13:27 44.80894 -68.82429 176 ft 17 kts 315°
2026-04-18 13:27 44.80990 -68.82565 177 ft 23 kts 314°
2026-04-18 13:27 44.81119 -68.82752 179 ft 30 kts 314°
2026-04-18 13:27 44.81278 -68.82985 181 ft 33 kts 316°
2026-04-18 13:28 44.81432 -68.83207 183 ft 31 kts 313°
2026-04-18 13:28 44.81577 -68.83413 185 ft 28 kts 313°
2026-04-18 13:28 44.81710 -68.83606 186 ft 26 kts 315°
2026-04-18 13:28 44.81833 -68.83783 194 ft 24 kts 313°
2026-04-18 13:29 44.81909 -68.83894 194 ft 23 kts 315°
2026-04-18 13:29 44.82013 -68.84089 191 ft 14 kts 271°
2026-04-18 13:29 44.82009 -68.84116 191 ft 0 kts 246°
2026-04-18 13:29 44.82008 -68.84117 191 ft 1 kts 246°
2026-04-18 13:30 44.81988 -68.84158 193 ft 9 kts 229°
2026-04-18 13:30 44.81941 -68.84227 191 ft 9 kts 223°
2026-04-18 13:30 44.81892 -68.84284 195 ft 9 kts 213°
2026-04-18 13:30 44.81839 -68.84314 198 ft 8 kts 197°
2026-04-18 13:31 44.81784 -68.84309 190 ft 8 kts 144°
2026-04-18 13:31 44.81720 -68.84216 189 ft 37 kts 133°
2026-04-18 13:31 44.81277 -68.83556 189 ft 139 kts 133°
2026-04-18 13:31 44.80543 -68.82555 669 ft 152 kts 135°
2026-04-18 13:32 44.79755 -68.81484 1345 ft 166 kts 135°
2026-04-18 13:32 44.78859 -68.80249 1943 ft 193 kts 135°
2026-04-18 13:32 44.77842 -68.78823 2591 ft 218 kts 134°
2026-04-18 13:32 44.76758 -68.77297 3703 ft 221 kts 135°
2026-04-18 13:33 44.75667 -68.75741 4727 ft 229 kts 135°
2026-04-18 13:33 44.74517 -68.74131 5759 ft 236 kts 138°
2026-04-18 13:33 44.72981 -68.73307 6709 ft 243 kts 176°
2026-04-18 13:33 44.71344 -68.73784 7838 ft 247 kts 201°
2026-04-18 13:34 44.69880 -68.75102 8999 ft 250 kts 214°
2026-04-18 13:34 44.68430 -68.76524 10066 ft 256 kts 211°
2026-04-18 13:34 44.66915 -68.77867 10980 ft 259 kts 210°
2026-04-18 13:34 44.65414 -68.79173 12283 ft 241 kts 210°
2026-04-18 13:35 44.64018 -68.80418 13325 ft 244 kts 211°
2026-04-18 13:35 44.62553 -68.81729 14101 ft 253 kts 211°
2026-04-18 13:35 44.61062 -68.83058 14948 ft 253 kts 211°
2026-04-18 13:35 44.59587 -68.84370 15750 ft 255 kts 211°
2026-04-18 13:36 44.58580 -68.85265 16264 ft 258 kts 212°
2026-04-18 13:36 44.56522 -68.87094 17330 ft 264 kts 212°
2026-04-18 13:36 44.54951 -68.88490 18217 ft 266 kts 212°
2026-04-18 13:36 44.53390 -68.89875 18978 ft 272 kts 212°
2026-04-18 13:37 44.51771 -68.91312 19715 ft 276 kts 213°
2026-04-18 13:37 44.50132 -68.92765 20498 ft 280 kts 214°
2026-04-18 13:37 44.48463 -68.94244 21258 ft 285 kts 214°
2026-04-18 13:37 44.46794 -68.95721 21999 ft 290 kts 215°
2026-04-18 13:38 44.45065 -68.97250 22796 ft 294 kts 215°
2026-04-18 13:38 44.43318 -68.98796 23579 ft 299 kts 215°
2026-04-18 13:38 44.41542 -69.00365 24208 ft 306 kts 215°
2026-04-18 13:38 44.39711 -69.01983 24257 ft 312 kts 215°
2026-04-18 13:39 44.37906 -69.03569 24256 ft 309 kts 216°
2026-04-18 13:39 44.36081 -69.05176 24258 ft 308 kts 216°
2026-04-18 13:39 44.34267 -69.06776 24258 ft 308 kts 216°
2026-04-18 13:39 44.32449 -69.08377 24255 ft 308 kts 216°
2026-04-18 13:40 44.30656 -69.09952 24257 ft 308 kts 216°
2026-04-18 13:40 44.28840 -69.11548 24252 ft 308 kts 216°
2026-04-18 13:40 44.27038 -69.13161 24238 ft 306 kts 219°
2026-04-18 13:40 44.25664 -69.15370 24238 ft 297 kts 241°
2026-04-18 13:41 44.24663 -69.17863 24271 ft 298 kts 245°
2026-04-18 13:41 44.23467 -69.20252 24206 ft 305 kts 225°
2026-04-18 13:41 44.21684 -69.21822 24250 ft 310 kts 208°
2026-04-18 13:41 44.19680 -69.23011 24277 ft 312 kts 205°
2026-04-18 13:42 44.17687 -69.24151 24270 ft 311 kts 206°
2026-04-18 13:42 44.15639 -69.25383 24275 ft 332 kts 207°
2026-04-18 13:42 44.13429 -69.26733 24279 ft 360 kts 206°
2026-04-18 13:42 44.11058 -69.28150 24278 ft 385 kts 206°
2026-04-18 13:43 44.08582 -69.29840 24274 ft 405 kts 212°
2026-04-18 13:43 44.06149 -69.32012 24266 ft 421 kts 217°
2026-04-18 13:43 44.03754 -69.34326 24268 ft 427 kts 217°
2026-04-18 13:43 44.01231 -69.36552 24270 ft 431 kts 213°
2026-04-18 13:44 43.98614 -69.38599 24271 ft 432 kts 212°
2026-04-18 13:44 43.95996 -69.40719 24275 ft 446 kts 214°
2026-04-18 13:44 43.93342 -69.43035 24272 ft 453 kts 215°
2026-04-18 13:44 43.90648 -69.45358 24272 ft 456 kts 214°
2026-04-18 13:45 43.88829 -69.46860 24266 ft 458 kts 213°
2026-04-18 13:45 43.86068 -69.49113 24268 ft 459 kts 213°
2026-04-18 13:45 43.82449 -69.52155 24264 ft 459 kts 214°
2026-04-18 13:45 43.79715 -69.54473 24265 ft 460 kts 214°
2026-04-18 13:46 43.76961 -69.56762 24263 ft 460 kts 213°
2026-04-18 13:46 43.74204 -69.59027 24266 ft 460 kts 213°
2026-04-18 13:46 43.71319 -69.60880 24251 ft 463 kts 203°
2026-04-18 13:46 43.68234 -69.62287 24258 ft 465 kts 200°
2026-04-18 13:47 43.65153 -69.63673 24255 ft 465 kts 200°
2026-04-18 13:47 43.62068 -69.65082 24260 ft 465 kts 201°
2026-04-18 13:47 43.59023 -69.66463 24258 ft 465 kts 200°
2026-04-18 13:47 43.55942 -69.67843 24259 ft 465 kts 200°
2026-04-18 13:48 43.52853 -69.69230 24250 ft 466 kts 200°
2026-04-18 13:48 43.49807 -69.70606 24250 ft 466 kts 200°
2026-04-18 13:48 43.46722 -69.71996 24243 ft 466 kts 200°
2026-04-18 13:48 43.43640 -69.73376 24246 ft 466 kts 200°
2026-04-18 13:49 43.40550 -69.74760 24248 ft 466 kts 200°
2026-04-18 13:49 43.37493 -69.76133 24244 ft 465 kts 200°
2026-04-18 13:49 43.34397 -69.77519 24236 ft 466 kts 200°
2026-04-18 13:49 43.31303 -69.78901 24232 ft 466 kts 200°
2026-04-18 13:50 43.28247 -69.80265 24234 ft 466 kts 200°
2026-04-18 13:50 43.25143 -69.81651 24246 ft 470 kts 200°
2026-04-18 13:50 43.23079 -69.82572 24246 ft 469 kts 200°
2026-04-18 13:50 43.19957 -69.83961 24246 ft 469 kts 200°
2026-04-18 13:51 43.16860 -69.85339 24238 ft 472 kts 200°
2026-04-18 13:51 43.13732 -69.86730 24233 ft 470 kts 200°
2026-04-18 13:51 43.10641 -69.88101 24235 ft 468 kts 200°
2026-04-18 13:51 43.07577 -69.89460 24232 ft 468 kts 200°
2026-04-18 13:52 43.04467 -69.90838 24226 ft 468 kts 200°
2026-04-18 13:52 43.01364 -69.92211 24230 ft 467 kts 200°
2026-04-18 13:52 42.98294 -69.93569 24230 ft 467 kts 200°
2026-04-18 13:52 42.95194 -69.94940 24219 ft 468 kts 200°
2026-04-18 13:53 42.92092 -69.96310 23908 ft 462 kts 200°
2026-04-18 13:53 42.89131 -69.97608 23505 ft 434 kts 200°
2026-04-18 13:53 42.86274 -69.98869 22929 ft 429 kts 200°
2026-04-18 13:53 42.83484 -70.00106 22344 ft 418 kts 200°
2026-04-18 13:54 42.80774 -70.01295 21765 ft 399 kts 200°
2026-04-18 13:54 42.78156 -70.02441 21193 ft 387 kts 199°
2026-04-18 13:54 42.75655 -70.03571 20636 ft 381 kts 201°
2026-04-18 13:54 42.73165 -70.04861 20093 ft 380 kts 201°
2026-04-18 13:55 42.70677 -70.06044 19566 ft 377 kts 199°
2026-04-18 13:55 42.68191 -70.07227 19037 ft 376 kts 199°
2026-04-18 13:55 42.66627 -70.08202 18652 ft 371 kts 210°
2026-04-18 13:55 42.64248 -70.11385 17796 ft 356 kts 237°
2026-04-18 13:56 42.63142 -70.14344 17219 ft 345 kts 246°
2026-04-18 13:56 42.62158 -70.17290 16686 ft 339 kts 246°
2026-04-18 13:56 42.61178 -70.20170 16146 ft 337 kts 245°
2026-04-18 13:56 42.60195 -70.23037 15612 ft 329 kts 246°
2026-04-18 13:57 42.59448 -70.25960 15070 ft 327 kts 252°
2026-04-18 13:57 42.58718 -70.28861 14554 ft 330 kts 251°
2026-04-18 13:57 42.57962 -70.31792 14048 ft 327 kts 250°
2026-04-18 13:57 42.57226 -70.34690 13479 ft 321 kts 251°
2026-04-18 13:58 42.56504 -70.37566 12908 ft 320 kts 250°
2026-04-18 13:58 42.55789 -70.40391 12815 ft 312 kts 250°
2026-04-18 13:58 42.55080 -70.43178 12945 ft 318 kts 250°
2026-04-18 13:58 42.54363 -70.45997 12955 ft 317 kts 250°
2026-04-18 13:59 42.53650 -70.48804 12948 ft 318 kts 250°
2026-04-18 13:59 42.52931 -70.51676 12946 ft 321 kts 252°
2026-04-18 13:59 42.52319 -70.54576 12936 ft 319 kts 252°
2026-04-18 13:59 42.51633 -70.57359 12941 ft 317 kts 250°
2026-04-18 14:00 42.50937 -70.60202 12938 ft 317 kts 251°
2026-04-18 14:00 42.50284 -70.63093 12948 ft 317 kts 253°